This is the latest recevied weather packets stored in our database for station/object KI5NXU. If no packets are shown the sender has not sent any weather packets the latest 10 day(s).
| Time | Temp. | Humidity | Pressure | Rain* | Wind** | Luminosity | Snow |
|---|---|---|---|---|---|---|---|
| 1777931296 | 30.56° C | 52% | 1005 hPa | 0 mm | - | 396 W/m² | - |
| 1777930994 | 30.56° C | 52% | 1005 hPa | 0 mm | - | 443 W/m² | - |
| 1777930690 | 31.11° C | 52% | 1005.1 hPa | 0 mm | - | 442 W/m² | - |
| 1777930386 | 30.56° C | 52% | 1005 hPa | 0 mm | - | 516 W/m² | - |
| 1777930084 | 30.56° C | 52% | 1005.3 hPa | 0 mm | - | 469 W/m² | - |
| 1777929780 | 30.56° C | 53% | 1005.4 hPa | 0 mm | - | 356 W/m² | - |
| 1777929478 | 29.44° C | 54% | 1005.5 hPa | 0 mm | - | 432 W/m² | - |
| 1777929173 | 30° C | 54% | 1005.5 hPa | 0 mm | - | 356 W/m² | - |
| 1777928871 | 30° C | 52% | 1005.6 hPa | 0 mm | - | 520 W/m² | - |
| 1777928568 | 30° C | 53% | 1005.5 hPa | 0 mm | - | 451 W/m² | - |
| 1777928265 | 30° C | 53% | 1005.9 hPa | 0 mm | - | 406 W/m² | - |
| 1777927963 | 30° C | 54% | 1006 hPa | 0 mm | - | 316 W/m² | - |
| 1777927661 | 30° C | 52% | 1006.1 hPa | 0 mm | - | 440 W/m² | - |
| 1777927359 | 30° C | 54% | 1006.2 hPa | 0 mm | - | 311 W/m² | - |
| 1777927058 | 30.56° C | 53% | 1006 hPa | 0 mm | - | 523 W/m² | - |
| 1777926755 | 30° C | 52% | 1006 hPa | 0 mm | - | 511 W/m² | - |
| 1777926455 | 29.44° C | 53% | 1006.2 hPa | 0 mm | - | 560 W/m² | - |
| 1777926152 | 30° C | 53% | 1006.4 hPa | 0 mm | - | 608 W/m² | - |
| 1777925849 | 30.56° C | 52% | 1006.5 hPa | 0 mm | - | 614 W/m² | - |
| 1777925546 | 30° C | 53% | 1006.4 hPa | 0 mm | - | 543 W/m² | - |
| 1777925244 | 30° C | 53% | 1006.6 hPa | 0 mm | - | 612 W/m² | - |
| 1777924940 | 28.89° C | 53% | 1006.9 hPa | 0 mm | - | 595 W/m² | - |
| 1777924637 | 28.89° C | 53% | 1006.9 hPa | 0 mm | - | 521 W/m² | - |
| 1777924332 | 30° C | 52% | 1007.1 hPa | 0 mm | - | 738 W/m² | - |
| 1777924030 | 28.89° C | 54% | 1007.2 hPa | 0 mm | - | 731 W/m² | - |
* Rain latest hour (hover to see other rain measurements)
** Current wind speed in m/s (hover to see current wind gust speed)